Location: K?pa Parnicka
(53.4167°N, 14.5500°E)
Time: 01:55:36
(UTC+00:00)

Daily predictions for brighter satellites

Satellite Brightness Start Highest point End
(mag) Time Altitude Azimuth Time Altitude Azimuth Time Altitude Azimuth
ATLAS 3B R/B 4.4 01:43:18 28° ENE 01:43:18 28° ENE 01:46:52 10° E
CENTAUR R/B 4.0 02:14:21 41° SE 02:14:21 41° SE 02:19:37 10° SE
Cosmos 2227 Rocket 4.5 02:15:23 18° NNE 02:15:23 18° NNE 02:16:43 10° NNE
Cosmos 2297 Rocket 4.1 02:48:42 21° NNE 02:48:42 21° NNE 02:50:36 10° NNE
ATLAS CENTAUR R/B 4.3 02:55:55 13° E 02:55:55 13° E 02:56:26 10° E
Lacrosse 5 4.1 02:52:48 19° SE 02:53:07 19° SE 02:56:36 10° E
Cosmos 1745 Rocket 4.4 02:59:34 59° NE 02:59:34 59° NE 03:04:49 10° NNE
Cosmos 2263 Rocket 3.0 03:01:26 47° ESE 03:01:26 47° ESE 03:06:51 10° NE
SJ 16-02 3.3 03:08:48 27° ESE 03:09:08 27° E 03:12:52 10° NE
Cosmos 2181 Rocket 4.4 03:10:55 10° N 03:17:05 59° ENE 03:23:08 10° SSE
Cosmos 2082 Rocket 4.3 03:16:03 15° N 03:17:37 17° NNE 03:21:15 10° ENE
Cosmos 1709 Rocket 4.3 03:17:25 10° S 03:23:43 65° E 03:30:03 10° NNE
USA 307 4.3 03:28:58 38° E 03:28:58 38° E 03:31:42 10° E
CZ-4C R/B 4.1 03:26:15 10° SSE 03:30:21 25° ESE 03:35:01 10° ENE
COSMO-SKYMED 1 3.5 03:26:41 10° SE 03:30:47 46° ENE 03:30:47 46° ENE
ATLAS 3B R/B 2.6 03:30:35 65° NW 03:31:45 87° NE 03:38:54 10° SE
Meteor 2-3 Rocket 4.5 03:27:46 10° S 03:33:18 52° E 03:38:55 10° NNE
USA 308 4.0 03:35:04 43° ENE 03:35:04 43° ENE 03:38:02 10° E
Lacrosse 4 Rocket 3.8 03:38:11 15° SSE 03:38:11 15° SSE 03:39:02 10° SSE
Timation 1 Rocket 4.5 03:38:32 59° NNW 03:38:32 59° NNW 03:43:51 10° NNE
Cosmos 1386 Rocket 4.5 03:43:35 63° NW 03:43:35 63° NW 03:49:25 10° N
ALOS 2.2 03:47:36 10° NNE 03:52:19 81° ESE 03:53:16 57° S
EXPRESS MD2 4.1 03:53:25 46° SE 03:53:25 46° SE 03:58:02 10° ESE
Cosmos 923 Rocket 4.1 03:53:38 58° SSW 03:53:38 58° SSW 03:58:07 10° SSE
deb Chang Zheng 4 4.3 03:49:18 10° NNE 03:53:33 52° ESE 03:57:48 10° S
Cosmos 2227 Rocket 3.6 03:57:13 23° NNW 03:57:13 23° NNW 04:00:36 10° NNE
METEOR-M 4.3 03:51:37 10° NNE 03:56:59 73° ESE 04:02:19 10° S
Cosmos 2344 4.2 03:53:01 34° NW 03:57:57 82° SW 04:10:29 10° SE
CENTAUR R/B 3.8 04:01:35 34° WSW 04:01:35 34° WSW 04:08:40 10° S
USA 305 2.9 04:02:46 77° NE 04:02:46 77° NE 04:06:53 10° E
Cosmos 2227 4.0 04:01:36 59° WSW 04:02:36 73° NW 04:08:15 10° NNE
ARGOS Delta rocket 3.8 03:58:09 10° N 04:03:22 74° WNW 04:04:43 48° SW
NOSS 3-4 (A) 3.5 04:00:50 31° SSW 04:03:51 75° SE 04:10:19 10° NE
NOSS 3-4 (C) 3.5 04:00:54 30° SSW 04:03:59 75° SE 04:10:27 10° NE
Meteor 1-31 Rocket 2.9 04:01:09 10° NNE 04:05:02 73° ESE 04:05:09 72° ESE
Cosmos 158 Rocket 4.4 04:10:38 41° SW 04:10:38 41° SW 04:14:20 10° S
Cosmos 1812 3.8 04:07:44 21° N 04:09:56 44° ENE 04:13:37 10° SSE
Cosmos 2228 Rocket 4.0 04:05:58 12° N 04:09:59 48° ENE 04:14:14 10° SSE
Cosmos 1515 Rocket 3.5 04:09:36 45° N 04:10:58 89° E 04:15:26 10° S
USA 306 2.8 04:10:52 80° NNW 04:10:59 82° N 04:15:19 10° E
SL-4 R/B 1.9 04:15:03 67° S 04:15:03 67° S 04:18:46 10° E
Meteor 2-17 Rocket 4.4 04:09:19 10° S 04:15:22 83° E 04:21:29 10° NNE
Cosmos 1782 3.4 04:16:34 45° SSW 04:16:34 45° SSW 04:19:29 10° S
Cosmos 1777 Rocket 4.3 04:16:44 44° NW 04:16:44 44° NW 04:21:23 10° NNE
PSLV R/B 3.8 04:14:07 10° SSE 04:18:16 88° W 04:19:24 48° NNW
SKYMED 2 3.4 04:14:33 10° S 04:18:53 68° WSW 04:19:24 61° WNW
Cosmos 1844 Rocket 3.8 04:14:30 10° S 04:19:50 44° ESE 04:25:13 10° NE
Cosmos 1680 Rocket 3.6 04:20:02 48° WNW 04:20:47 53° WSW 04:25:56 10° S
SJ-12 4.0 04:17:18 10° NNE 04:21:23 77° ESE 04:25:27 10° S
ATLAS 2AS CENTAUR R/B 3.1 04:15:43 10° SW 04:23:43 81° SE 04:31:31 10° NE
FALCON 9 DEB 3.0 04:26:38 85° SSE 04:26:38 85° SSE 04:30:05 10° E
Cosmos 2297 Rocket 3.8 04:30:30 18° NNW 04:30:35 18° NNW 04:34:27 10° NNE
ATLAS 5 CENTAUR R/B 2.0 04:31:18 48° NNW 04:31:18 48° NNW 04:33:43 10° NE
ATLAS CENTAUR R/B 1.5 04:32:06 46° SW 04:32:06 46° SW 04:35:39 10° SSE
ADEOS 3.5 04:26:52 10° N 04:32:03 61° WNW 04:37:10 10° SSW
CZ-4B R/B 4.1 04:29:17 10° N 04:31:59 42° NNW 04:31:59 42° NNW
RESURS DK-1 3.1 04:29:47 10° SSW 04:33:51 55° ESE 04:37:57 10° NE
CRYOSAT 2 4.4 04:29:31 10° SSW 04:34:17 55° W 04:39:06 10° NNW
Meteor PRIRODA 3.8 04:30:36 10° NNE 04:34:22 75° ESE 04:38:05 10° S
Lacrosse 5 2.2 04:32:03 21° SW 04:35:21 65° SSE 04:40:23 10° ENE
Meteor 2-6 Rocket 4.0 04:30:15 10° NNW 04:35:40 81° W 04:41:07 10° S
CZ-2C R/B 4.2 04:33:13 10° N 04:34:19 15° NNW 04:34:19 15° NNW
ERBS 2.4 04:38:12 54° NNW 04:38:12 54° NNW 04:41:27 10° ENE
H-2A R/B 3.5 04:34:22 10° NNE 04:38:15 54° E 04:42:03 10° S
Cosmos 1500 Rocket 3.8 04:33:59 10° S 04:38:16 68° E 04:42:36 10° NNE
Cosmos 1437 Rocket 3.2 04:36:35 14° N 04:39:46 59° ENE 04:43:30 10° SSE
Cosmos 2112 Rocket 4.4 04:38:53 34° WNW 04:40:29 43° WSW 04:45:31 10° S
Okean O Rocket 4.2 04:38:08 10° NE 04:41:44 23° E 04:45:18 10° SE
Gbstr 26 Del rocket 4.2 04:43:34 21° SW 04:43:43 21° SW 04:46:40 10° SSE
Cosmos 2263 Rocket 2.6 04:43:11 30° W 04:45:26 43° NW 04:50:54 10° NNE
SJ 16-02 1.6 04:45:52 31° WSW 04:47:31 46° WNW 04:51:49 10° NNE
Nadezhda 3 Rocket 4.0 04:41:39 10° N 04:48:01 89° W 04:54:17 10° S
Cosmos 1898 Rocket 3.5 04:49:42 10° SSW 04:55:03 84° WNW 05:00:26 10° NNE
CZ-2C R/B 3.3 04:51:24 10° SE 04:56:44 57° ENE 05:01:58 10° N
FENGYUN 3A 4.1 04:51:48 10° N 04:56:46 37° WNW 05:01:42 10° SW
Envisat 3.6 04:52:19 10° NNE 04:57:22 59° E 05:02:23 10° S
Cosmos 1766 Rocket 4.4 04:58:04 29° WNW 04:58:30 29° WNW 05:02:27 10° N
FALCON 9 DEB 4.1 04:56:35 18° SW 04:58:34 41° SSE 05:01:38 10° E
FALCON 9 DEB 4.0 04:56:45 19° SW 04:58:40 42° SSE 05:01:46 10° E
Sich 1 4.2 04:54:58 10° SSE 04:59:12 46° E 05:03:28 10° NNE
H-2A R/B 3.3 04:57:06 10° NNE 05:00:53 48° E 05:04:35 10° S
Cosmos 1743 Rocket 3.5 04:57:47 10° SSW 05:02:14 72° WNW 05:06:45 10° N
Cosmos 2082 Rocket 3.3 04:57:57 10° NNW 05:03:20 41° NE 05:08:43 10° ESE
Cosmos 1408 Rocket 3.9 05:00:08 10° SW 05:04:22 41° WNW 05:08:35 10° N
COSMO-SKYMED 1 3.6 05:03:35 10° SSW 05:07:12 26° W 05:07:59 24° WNW
USA 307 2.9 05:05:08 26° W 05:07:29 85° SSW 05:11:49 10° ESE
Cosmos 1937 Rocket 3.4 05:06:56 10° SSW 05:12:06 82° WNW 05:17:21 10° NNE
Cosmos 1833 Rocket 3.0 05:08:13 11° NNW 05:13:46 68° NE 05:19:22 10° SE
USA 308 2.9 05:11:14 24° W 05:13:51 83° SSW 05:18:09 10° ESE
CZ-4B R/B 3.4 05:11:18 10° N 05:15:36 44° WNW 05:19:49 10° SW
Meteor 2-3 Rocket 4.4 05:11:37 10° SW 05:16:47 34° WNW 05:22:03 10° N
Meteor 1-27 Rocket 3.7 05:11:26 10° NNW 05:17:11 76° W 05:23:01 10° S
Cosmos 1610 Rocket 4.5 05:10:55 10° SSW 05:17:18 78° WNW 05:23:44 10° N
MOS 1 Rocket 3.7 05:12:45 10° S 05:17:29 50° W 05:22:32 10° NNW
CZ-4C R/B 2.2 05:12:50 10° SW 05:18:03 82° NW 05:24:29 10° NE
Cosmos 2154 Rocket 3.9 05:11:58 10° SSW 05:18:12 77° WNW 05:24:32 10° N
Meteor 1-10 Rocket 4.4 05:13:47 10° NNW 05:19:07 48° W 05:24:28 10° SSW
FALCON 9 DEB 3.6 05:18:33 12° WSW 05:21:21 52° SSE 05:24:31 10° E
Cosmos 1805 Rocket 3.5 05:16:57 10° S 05:21:24 87° W 05:25:54 10° N
Cosmos 494 Rocket 4.3 05:16:18 10° NNW 05:21:30 67° ENE 05:26:36 10° SE
ATLAS 3B R/B 3.6 05:17:52 17° WNW 05:21:51 30° WSW 05:27:51 10° S
Cosmos 468 4.5 05:17:28 10° NNW 05:22:46 86° WSW 05:28:00 10° SSE
COSMOS 2406 3.3 05:18:03 10° NNW 05:23:50 90° WSW 05:29:36 10° SSE
Aureole 2 Rocket 1.5 05:23:16 10° SSW 05:25:48 86° WNW 05:28:24 10° NNE
Cosmos 1048 Rocket 4.0 05:20:44 10° NNW 05:26:04 84° WSW 05:31:18 10° SSE
YAOGAN 6 2.4 05:22:59 10° N 05:26:31 74° WNW 05:29:59 10° SSW
Cosmos 1666 Rocket 4.2 05:24:17 10° S 05:28:31 57° E 05:32:48 10° NNE
Cosmos 1862 3.6 05:25:09 10° SSW 05:29:02 44° WNW 05:32:58 10° N
ALOS 3.6 05:25:56 10° NNW 05:29:12 19° NW 05:31:45 13° W
Genesis I 3.1 05:26:50 10° SW 05:30:39 71° NW 05:34:32 10° NE
DMSP B5D2-2 4.2 05:27:20 10° SSE 05:32:34 83° ENE 05:37:48 10° NNW
Cosmos 2341 Rocket 4.1 05:27:58 10° S 05:34:10 82° E 05:40:26 10° NNE
PSLV R/B 3.9 05:31:28 10° N 05:35:17 52° WNW 05:38:59 10° SW
Cosmos 2278 Rocket 4.0 05:30:12 10° S 05:35:19 36° ESE 05:40:27 10° NE
Cosmos 990 Rocket 4.4 05:33:02 10° WSW 05:37:59 40° NW 05:42:58 10° NNE
Meteor 1-31 Rocket 4.3 05:36:36 10° NNW 05:38:58 16° WNW 05:40:29 13° W
Cosmos 2074 Rocket 4.4 05:33:30 10° SW 05:39:18 40° WNW 05:45:09 10° N
SL-8 Rocket 4.3 05:35:40 10° S 05:41:46 74° E 05:47:57 10° NNE
Cosmos 2227 Rocket 4.1 05:39:16 10° NW 05:42:04 14° N 05:44:54 10° NNE
USA 305 3.1 05:38:55 14° WNW 05:42:35 67° SSW 05:46:52 10° ESE
Okean 1 4.0 05:38:39 10° N 05:42:39 56° ENE 05:46:39 10° SSE
BREEZE M DEB (TANK) 4.1 05:39:06 10° SW 05:43:32 26° S 05:45:45 10° ESE
NOAA 12 4.3 05:38:56 10° NNE 05:44:16 81° ESE 05:49:31 10° SSW
Cosmos 405 Rocket 3.2 05:41:32 10° SW 05:44:56 34° WNW 05:48:26 10° N
Cosmos 1812 4.1 05:42:51 11° NW 05:45:26 20° W 05:48:16 10° SW
Cosmos 1727 Rocket 4.5 05:39:41 10° N 05:45:59 67° ENE 05:52:18 10° SSE
Cosmos 2228 Rocket 4.2 05:44:23 10° NW 05:47:55 23° W 05:51:24 10° SW
USA 229 DEB 4.2 05:42:20 10° NW 05:49:20 60° NNE 05:56:48 10° ESE
USA 229 4.2 05:42:25 10° NW 05:49:26 60° NNE 05:56:53 10° ESE
USA 306 3.2 05:47:01 12° WNW 05:51:00 63° SSW 05:55:15 10° ESE
SL-4 R/B 2.3 05:50:41 10° W 05:54:27 52° SSW 05:57:57 10° ESE
Cosmos 1633 Rocket 3.2 05:50:32 10° S 05:54:57 85° ESE 05:59:24 10° NNE
NOSS 3-4 (A) 3.9 05:49:22 10° W 05:55:13 45° NNW 06:01:39 10° NE
NOSS 3-4 (C) 3.9 05:49:29 10° W 05:55:21 45° NNW 06:01:47 10° NE
Cosmos 1271 Rocket 4.3 05:51:56 10° N 05:55:26 33° ENE 05:58:55 10° SE
USA 234 4.0 05:49:23 10° ENE 05:55:50 57° SE 06:02:16 10° SW
USA-17 4.3 05:54:18 10° WSW 05:57:35 54° NW 06:00:35 10° NE
Cosmos 1356 3.4 05:57:06 10° SSW 06:00:29 60° WNW 06:03:53 10° N
FALCON 9 DEB 3.1 05:57:56 10° WSW 06:01:08 75° S 06:04:21 10° E
NOSS 3-1 (C) 4.2 05:55:13 10° NW 06:02:19 76° NE 06:10:43 10° SE
NOSS 3-1 (A) 4.3 05:56:24 10° NW 06:03:20 62° NNE 06:11:32 10° ESE
FALCON 9 DEB 3.9 06:00:07 10° W 06:03:28 45° SSW 06:06:47 10° SE
Cosmos 1844 Rocket 3.0 05:58:21 10° WSW 06:03:47 45° NW 06:09:15 10° NNE
Cosmos 1515 3.8 06:00:44 10° N 06:04:36 81° E 06:08:24 10° SSE
Cosmos 1707 Rocket 4.2 06:01:09 10° NNW 06:05:07 35° W 06:09:04 10° SSW
MOS 1-B 4.4 06:00:36 10° NNE 06:06:18 57° WNW 06:11:59 10° SW
NOAA 6 4.3 06:04:37 10° N 06:09:29 45° WNW 06:14:20 10° SW
COSMOS 2455 2.9 06:05:49 10° SW 06:11:53 79° NW 06:17:58 10° NE
H-2A R/B 4.1 06:09:11 10° NNW 06:12:05 20° WNW 06:14:58 10° WSW
RESURS DK-1 3.3 06:08:34 10° W 06:12:10 27° NW 06:15:47 10° NNE
CZ-2C R/B 4.1 06:09:01 10° SSE 06:13:47 74° ENE 06:18:34 10° NNW
USA 290 2.3 06:11:24 10° NNW 06:14:43 87° ENE 06:17:59 10° SSE
ERBS 2.8 06:11:34 10° WNW 06:14:45 44° N 06:17:58 10° E
Okean-O 4.3 06:11:03 10° NNE 06:15:15 40° E 06:19:26 10° SSE
ATLAS 2AS CENTAUR R/B 3.3 06:07:41 10° W 06:15:22 49° NNW 06:22:45 10° NE
Cosmos 1844 4.0 06:12:24 10° WSW 06:17:42 44° NW 06:23:03 10° NNE
